Regional Weather Roundup
Issued by NWS

Home | Current Version | Previous Version | Graphics & Text | Print | Product List | Glossary On
Versions: 1 2 3 4 5 6 7 8 9 10 11 12 13 14 15 16 17 18 19 20 21 22 23 24 25 26 27 28 29 30 31 32 33 34 35 36 37 38 39 40 41 42 43 44 45 46 47 48 49 50
000
ASUS43 KLOT 271000
RWRIL

ILLINOIS REGIONAL WEATHER ROUNDUP
NATIONAL WEATHER SERVICE CHICAGO/ROMEOVILLE IL
500 AM CDT WED AUG 27 2014

NOTE: "FAIR" INDICATES FEW OR NO CLOUDS BELOW 12,000 FEET WITH NO
SIGNIFICANT WEATHER AND/OR OBSTRUCTIONS TO VISIBILITY.

* THESE STATIONS ARE NOT UNDER NWS QUALITY CONTROL. THEY ALSO MAY NOT
  REPORT WEATHER SUCH AS PRECIPITATION OR FOG.

ILZ001-002-007-009-015-016-024-271100-
NORTHWEST ILLINOIS

CITY           SKY/WX    TMP DP  RH WIND       PRES   REMARKS
MOLINE         MOCLDY    70  64  81 NE6       30.12R
STERLING*      CLOUDY    66  63  88 NE5       30.13S
$$

ILZ003-004-008-010-011-017-018-271100-
NORTH CENTRAL ILLINOIS

CITY           SKY/WX    TMP DP  RH WIND       PRES   REMARKS
ROCKFORD       CLOUDY    66  57  72 N5        30.16R
FREEPORT*      MOCLDY    63  60  92 CALM      30.17R
ROCHELLE*      MOCLDY    65  61  86 NE3       30.14R
$$

ILZ005-006-012>014-019>023-271100-
NORTHEAST ILLINOIS

CITY           SKY/WX    TMP DP  RH WIND       PRES   REMARKS
CHICAGO-OHARE  MOCLDY    69  62  78 N6        30.13R
CHICAGO-MIDWAY MOCLDY    72  63  73 NE7       30.12R
AURORA         MOCLDY    68  62  81 N5        30.13R
WAUKEGAN       CLOUDY    65  61  87 NW3       30.12S
DUPAGE AIRPORT MOCLDY    66  62  87 N6        30.12S
WHEELING       MOCLDY    68  63  84 CALM      30.14R
NORTHERLY ISL    N/A     70  63  78 NE5         N/A
$$

LMZ740>746-271100-
SOUTHERN LAKE MICHIGAN

STATION/POSITION SKY/WX   TEMP    WIND        PRES    VSBY  WAVE
                          AIR SEA DIR/SP/G                  HT/PER
                          (F)     (DEG/KT/KT) (MB)    (MI)  (FT/S)
SOUTHERN BUOY              68 69  360/  2/  2 1019.8F         0
WAUKEGAN HARBOR            67     360/  5/  7   N/A
HARRISON CRIB              71      40/  9/ 10   N/A
BURNHAM HARBOR             70      50/  6/  9   N/A
CALUMET HARBOR             71      30/  6/  7 1018.6R
MICHIGAN CITY              68      60/  4/  5   N/A
MICHIGAN CITY 6N           71 73   70/  8/ 10   N/A           1/ 3
ST. JOSEPH                 69 74   50/  6/  6   N/A           1
$$

ILZ025>027-034>036-040-047-049-050-058-095>099-271100-
WEST-CENTRAL ILLINOIS

CITY           SKY/WX    TMP DP  RH WIND       PRES   REMARKS
QUINCY         CLEAR     70  68  93 NE6       30.08F
MACOMB*        MOCLDY    69  67  94 N5        30.12S
$$

ILZ028>032-037-038-041>044-048-051>054-059>061-271100-
CENTRAL ILLINOIS

CITY           SKY/WX    TMP DP  RH WIND       PRES   REMARKS
DECATUR        PTCLDY    68  66  93 NE3       30.10S
PEORIA         MOCLDY    74  67  78 NE7       30.10S
SPRINGFIELD    PTCLDY    71  66  84 E5        30.09S
TAYLORVILLE    NOT AVBL
$$

ILZ033-039-045-046-055>057-062-063-271100-
EAST-CENTRAL ILLINOIS

CITY           SKY/WX    TMP DP  RH WIND       PRES   REMARKS
CHAMPAIGN      PTCLDY    68  65  90 S3        30.09F
MATTOON        PTCLDY    69  67  93 NW5       30.10R
$$

ILZ079-100>102-271100-
SOUTHWEST ILLINOIS

CITY           SKY/WX    TMP DP  RH WIND       PRES   REMARKS
BELLEVILLE     CLEAR     71  70  99 CALM      30.05S
$$

ILZ064>066-069>071-074>076-080>082-084>086-088>090-092>094-271100-
SOUTH-CENTRAL ILLINOIS

CITY           SKY/WX    TMP DP  RH WIND       PRES   REMARKS
CARBONDALE     CLEAR     72  70  93 CALM      30.06S FOG
MT. VERNON     MOCLDY    72  68  88 N5        30.08R VSB 3/4
SALEM*         PTCLDY    73  70  93 CALM      30.09R
$$

ILZ067-068-072-073-078-083-087-091-271100-
SOUTHEAST ILLINOIS

CITY           SKY/WX    TMP DP  RH WIND       PRES   REMARKS
LAWRENCEVILLE  MOCLDY    72  70  93 E3        30.08R
HARRISBURG*    CLEAR     71  71 100 CALM      30.07S FOG
ROBINSON*      MOCLDY    70  69  98 CALM      30.09R FOG
$$

ABBREVIATIONS USED IN REMARKS
   TC - TEMPERATURE IN CELSIUS
  WCI - WIND CHILL INDEX
   HX - HEAT INDEX
  VSB - VISIBILITY
$$




USA.gov is the U.S. government's official web portal to all federal, state and local government web resources and services.